New Philadelphia, OH

7:42 AM EDT on May 25, 2018 (GMT -0400)
Clever

Weather History for KPHD - December, 2012

Change the Weather History Date:

Sunday, December 16, 2012

  Actual Average Record
Temperature  
Mean Temperature 54 °F 32 °F  
Max Temperature 59 °F 40 °F 67 °F (1971)
Min Temperature 48 °F 24 °F -2 °F (1989)
Degree Days  
Heating Degree Days 11 33  
Month to date heating degree days 350 486  
Since 1 July heating degree days 1623 1644  
Cooling Degree Days 0 0  
Month to date cooling degree days 0 0  
Year to date cooling degree days 981 697  
Growing Degree Days 4 (Base 50)    
Moisture  
Dew Point 46 °F    
Average Humidity 69    
Maximum Humidity 83    
Minimum Humidity 54    
Precipitation  
Precipitation 0.06 in 0.07 in 1.19 in (2000)
Month to date precipitation 2.34 1.44  
Year to date precipitation 30.66 37.67  
Sea Level Pressure  
Sea Level Pressure 29.75 in    
Wind  
Wind Speed 6 mph (South)    
Max Wind Speed 13 mph    
Max Gust Speed 18 mph    
Visibility 10 miles    
Events Rain    
T = Trace of Precipitation, MM = Missing Value Source: NWS Daily Summary

Daily Weather History Graph

Daily Weather History Graph

Search for Another Location

Airport or City:

Astronomy

Dec. 16, 2012 Rise Set
Actual Time 7:42 AM EST 5:00 PM EST
Civil Twilight 7:12 AM EST 5:31 PM EST
Nautical Twilight 6:37 AM EST 6:05 PM EST
Astronomical Twilight 6:04 AM EST 6:38 PM EST
Moon 10:14 AM EST (12/16) 9:13 PM EST (12/16)
Length of Visible Light 10h 19m
Length of Day
9h 17m
Waxing Crescent, 16% of the Moon is Illuminated
Dec 16
Waxing Crescent
Dec 20
First Quarter
Dec 28
Full
Jan 4
Last Quarter
Jan 11
New

Hourly Weather History & Observations

Time (EST) Temp. Dew Point Humidity Pressure Visibility Wind Dir Wind Speed Gust Speed Precip Events Conditions
12:53 AM 48.9 °F 35.1 °F 59% 29.85 in 10.0 mi SSE 3.5 mph - N/A   Overcast
1:53 AM 52.0 °F 36.0 °F 54% 29.83 in 10.0 mi South 5.8 mph - N/A   Overcast
2:53 AM 52.0 °F 37.0 °F 57% 29.82 in 10.0 mi South 8.1 mph - N/A   Overcast
3:53 AM 53.1 °F 37.0 °F 55% 29.81 in 10.0 mi South 8.1 mph - N/A   Overcast
4:53 AM 53.1 °F 37.9 °F 57% 29.81 in 10.0 mi South 9.2 mph - N/A   Mostly Cloudy
5:25 AM 53.6 °F 39.2 °F 58% 29.81 in 10.0 mi South 5.8 mph - N/A   Overcast
5:32 AM 53.6 °F 39.2 °F 58% 29.80 in 10.0 mi South 5.8 mph - N/A   Overcast
5:53 AM 54.0 °F 39.0 °F 57% 29.81 in 10.0 mi South 6.9 mph - N/A   Overcast
6:53 AM 53.1 °F 41.0 °F 64% 29.81 in 10.0 mi South 4.6 mph - N/A   Overcast
7:09 AM 53.6 °F 42.8 °F 67% 29.80 in 10.0 mi Variable 3.5 mph - N/A   Overcast
7:49 AM 53.6 °F 42.8 °F 67% 29.79 in 10.0 mi Variable 3.5 mph - N/A   Overcast
7:53 AM 55.0 °F 43.0 °F 64% 29.81 in 10.0 mi SSW 6.9 mph - N/A   Overcast
8:53 AM 55.0 °F 44.1 °F 67% 29.79 in 10.0 mi South 6.9 mph - N/A   Overcast
9:11 AM 55.4 °F 44.6 °F 67% 29.79 in 10.0 mi South 4.6 mph - 0.00 in Rain Light Rain
9:53 AM 55.9 °F 46.0 °F 69% 29.80 in 10.0 mi SSW 5.8 mph - 0.00 in   Overcast
10:14 AM 55.4 °F 46.4 °F 72% 29.79 in 10.0 mi SSW 5.8 mph - N/A   Mostly Cloudy
10:53 AM 57.0 °F 48.0 °F 72% 29.79 in 10.0 mi South 8.1 mph - N/A   Mostly Cloudy
11:53 AM 57.0 °F 48.9 °F 74% 29.77 in 10.0 mi South 6.9 mph - N/A   Overcast
12:53 PM 57.0 °F 48.9 °F 74% 29.75 in 10.0 mi South 5.8 mph - N/A   Overcast
1:12 PM 57.2 °F 48.2 °F 72% 29.73 in 10.0 mi South 5.8 mph - N/A   Mostly Cloudy
1:39 PM 57.2 °F 48.2 °F 72% 29.72 in 10.0 mi SSE 4.6 mph - N/A   Overcast
1:53 PM 57.9 °F 48.9 °F 72% 29.72 in 10.0 mi SSE 6.9 mph - N/A   Overcast
2:17 PM 59.0 °F 48.2 °F 67% 29.71 in 10.0 mi South 8.1 mph - N/A   Scattered Clouds
2:53 PM 59.0 °F 48.9 °F 69% 29.70 in 10.0 mi South 9.2 mph - N/A   Clear
3:53 PM 57.9 °F 48.9 °F 72% 29.70 in 10.0 mi South 8.1 mph - N/A   Mostly Cloudy
4:02 PM 57.2 °F 48.2 °F 72% 29.70 in 10.0 mi South 9.2 mph - N/A   Scattered Clouds
4:53 PM 57.9 °F 48.9 °F 72% 29.69 in 10.0 mi South 3.5 mph - N/A   Mostly Cloudy
5:51 PM 57.2 °F 48.2 °F 72% 29.69 in 10.0 mi South 6.9 mph - N/A   Overcast
5:53 PM 57.9 °F 48.9 °F 72% 29.69 in 10.0 mi South 6.9 mph - N/A   Overcast
6:53 PM 57.9 °F 50.0 °F 75% 29.68 in 10.0 mi Variable 5.8 mph - N/A   Overcast
7:25 PM 57.2 °F 50.0 °F 77% 29.69 in 10.0 mi South 8.1 mph - N/A   Overcast
7:36 PM 57.2 °F 50.0 °F 77% 29.68 in 10.0 mi SSW 8.1 mph - N/A   Overcast
7:53 PM 57.0 °F 50.0 °F 77% 29.69 in 10.0 mi South 5.8 mph - 0.00 in   Overcast
8:53 PM 57.9 °F 50.0 °F 75% 29.69 in 10.0 mi SSW 8.1 mph 18.4 mph N/A   Overcast
9:26 PM 57.2 °F 50.0 °F 77% 29.69 in 10.0 mi SSW 9.2 mph - N/A   Overcast
9:53 PM 57.0 °F 50.0 °F 77% 29.70 in 10.0 mi Variable 4.6 mph - N/A   Overcast
10:25 PM 53.6 °F 48.2 °F 82% 29.72 in 10.0 mi WSW 4.6 mph - 0.06 in   Overcast
10:53 PM 55.0 °F 50.0 °F 83% 29.72 in 10.0 mi Calm Calm - 0.06 in   Overcast
11:15 PM 53.6 °F 48.2 °F 82% 29.73 in 10.0 mi South 3.5 mph - N/A   Overcast
11:42 PM 53.6 °F 48.2 °F 82% 29.73 in 10.0 mi WNW 3.5 mph - N/A   Mostly Cloudy
11:53 PM 54.0 °F 48.9 °F 83% 29.73 in 10.0 mi Calm Calm - N/A   Partly Cloudy